KF0TNT Weather Reports


time (UTC)temp
F
wind
direction
speed
knots
gust
knots
rain 1hr
in
rain 24hr
in
rain mn
in
humidity
%
barometer
mb
20260906220356 85 2 2.6 7.0 0.00 0.00 0.00 33 1022.2
20260906215854 84 143 1.7 8.7 0.00 0.00 0.00 34 1022.5
20260906215350 83 120 3.5 3.5 0.00 0.00 0.00 34 1022.2
20260906214848 84 56 3.5 6.1 0.00 0.00 0.00 33 1022.5
20260906214347 83 270 4.3 4.3 0.00 0.00 0.00 35 1022.6
20260906213846 83 78 0.0 5.2 0.00 0.00 0.00 35 1022.7
20260906213341 84 19 1.7 7.0 0.00 0.00 0.00 34 1022.6
20260906212839 85 139 2.6 7.0 0.00 0.00 0.00 34 1022.7
20260906212334 84 160 2.6 8.7 0.00 0.00 0.00 35 1022.8
20260906211834 84 268 1.7 8.7 0.00 0.00 0.00 34 1023.0
20260906211329 84 72 2.6 4.3 0.00 0.00 0.00 34 1022.5
20260906210824 84 349 2.6 7.8 0.00 0.00 0.00 35 1022.8
20260906210324 85 307 4.3 5.2 0.00 0.00 0.00 34 1022.8
20260906205820 85 186 5.2 5.2 0.00 0.00 0.00 34 1023.0
20260906205316 84 10 1.7 6.1 0.00 0.00 0.00 35 1023.0
20260906204812 84 151 7.0 8.7 0.00 0.00 0.00 35 1023.0
20260906204311 84 136 2.6 7.0 0.00 0.00 0.00 35 1023.1
20260906203810 84 18 4.3 5.2 0.00 0.00 0.00 36 1023.2
20260906203306 84 18 3.5 9.6 0.00 0.00 0.00 35 1023.2
20260906202803 85 170 1.7 7.8 0.00 0.00 0.00 33 1023.0
20260906202306 85 57 1.7 6.1 0.00 0.00 0.00 34 1023.1
20260906201756 85 171 2.6 5.2 0.00 0.00 0.00 33 1023.3
20260906201256 84 179 1.7 7.0 0.00 0.00 0.00 34 1023.3
20260906200752 84 149 5.2 7.8 0.00 0.00 0.00 34 1023.5
20260906200248 84 326 1.7 3.5 0.00 0.00 0.00 34 1023.5
20260906195743 84 343 2.6 3.5 0.00 0.00 0.00 33 1023.5
20260906195239 84 311 1.7 4.3 0.00 0.00 0.00 34 1023.6
20260906194735 83 354 3.5 4.3 0.00 0.00 0.00 33 1023.8
20260906194231 83 173 4.3 6.1 0.00 0.00 0.00 34 1023.6
20260906193725 84 169 7.0 8.7 0.00 0.00 0.00 33 1024.1
20260906193220 84 175 2.6 4.3 0.00 0.00 0.00 33 1023.8
20260906192716 85 345 0.9 7.0 0.00 0.00 0.00 33 1024.0
20260906192216 84 60 0.9 4.3 0.00 0.00 0.00 33 1023.8
20260906191710 83 192 1.7 5.2 0.00 0.00 0.00 34 1023.8
20260906191209 83 186 3.5 7.8 0.00 0.00 0.00 34 1024.0
20260906190704 83 152 3.5 5.2 0.00 0.00 0.00 35 1024.0
20260906190159 83 348 3.5 5.2 0.00 0.00 0.00 34 1024.1
20260906185658 83 9 2.6 6.1 0.00 0.00 0.00 34 1024.3
20260906185157 82 17 7.0 9.6 0.00 0.00 0.00 33 1024.5
20260906184651 82 186 2.6 8.7 0.00 0.00 0.00 35 1024.5
20260906184147 82 68 1.7 10.4 0.00 0.00 0.00 35 1024.5
20260906183642 83 144 4.3 7.0 0.00 0.00 0.00 34 1024.5
20260906183139 83 358 2.6 3.5 0.00 0.00 0.00 33 1024.7
20260906182639 83 9 3.5 5.2 0.00 0.00 0.00 35 1024.6
20260906182135 82 13 6.1 6.1 0.00 0.00 0.00 36 1024.9
20260906181630 82 124 3.5 4.3 0.00 0.00 0.00 35 1024.8
20260906181126 81 152 2.6 4.3 0.00 0.00 0.00 36 1025.2
20260906180621 81 180 2.6 4.3 0.00 0.00 0.00 35 1025.2
20260906180120 81 180 0.9 7.0 0.00 0.00 0.00 36 1025.3
20260906175619 82 165 3.5 4.3 0.00 0.00 0.00 34 1025.6
20260906175114 81 18 2.6 5.2 0.00 0.00 0.00 35 1025.3
20260906174612 81 141 5.2 5.2 0.00 0.00 0.00 35 1025.6
20260906174107 81 235 2.6 5.2 0.00 0.00 0.00 35 1025.4
20260906173602 80 149 2.6 8.7 0.00 0.00 0.00 35 1025.6
20260906173058 80 198 3.5 7.0 0.00 0.00 0.00 35 1025.8
20260906172557 80 217 2.6 7.8 0.00 0.00 0.00 35 1025.7
20260906172053 80 200 2.6 5.2 0.00 0.00 0.00 35 1025.8
20260906171553 80 321 5.2 5.2 0.00 0.00 0.00 34 1025.8
20260906171048 80 42 1.7 5.2 0.00 0.00 0.00 34 1025.7
20260906170544 80 27 0.0 3.5 0.00 0.00 0.00 35 1025.8
20260906170043 80 358 1.7 2.6 0.00 0.00 0.00 34 1025.8
20260906165540 79 10 1.7 1.7 0.00 0.00 0.00 35 1025.8
20260906165035 79 178 1.7 4.3 0.00 0.00 0.00 35 1025.8
20260906164534 79 324 1.7 2.6 0.00 0.00 0.00 34 1025.8
20260906164030 79 150 2.6 5.2 0.00 0.00 0.00 34 1025.8
20260906163526 79 347 1.7 3.5 0.00 0.00 0.00 35 1026.1
20260906163021 78 169 2.6 2.6 0.00 0.00 0.00 36 1026.1
20260906162518 79 254 3.5 5.2 0.00 0.00 0.00 36 1026.3
20260906162013 78 244 0.0 1.7 0.00 0.00 0.00 34 1026.2
20260906161508 78 177 0.0 3.5 0.00 0.00 0.00 36 1026.1
20260906161007 77 87 0.9 5.2 0.00 0.00 0.00 36 1025.9
20260906160500 77 31 2.6 5.2 0.00 0.00 0.00 36 1026.1
20260906155958 76 175 1.7 2.6 0.00 0.00 0.00 37 1025.8
20260906155457 76 354 1.7 2.6 0.00 0.00 0.00 39 1026.1
20260906154953 75 3 2.6 4.3 0.00 0.00 0.00 40 1025.7
20260906154449 75 5 6.1 6.1 0.00 0.00 0.00 39 1025.8
20260906153946 74 24 5.2 6.1 0.00 0.00 0.00 39 1025.9
20260906153446 74 6 4.3 7.8 0.00 0.00 0.00 39 1025.8
20260906152941 73 1 3.5 5.2 0.00 0.00 0.00 40 1025.7
20260906152441 72 323 3.5 5.2 0.00 0.00 0.00 43 1025.8
20260906151940 71 0 0.0 3.5 0.00 0.00 0.00 44 1025.6
20260906151436 70 295 1.7 4.3 0.00 0.00 0.00 45 1025.8
20260906150932 70 43 2.6 5.2 0.00 0.00 0.00 46 1025.8
20260906150427 69 18 2.6 4.3 0.00 0.00 0.00 47 1025.9
20260906145926 69 357 2.6 2.6 0.00 0.00 0.00 48 1025.7
20260906145425 69 25 3.5 3.5 0.00 0.00 0.00 49 1025.8
20260906144920 68 353 3.5 4.3 0.00 0.00 0.00 48 1025.4
20260906144415 67 15 3.5 7.8 0.00 0.00 0.00 50 1025.7
20260906143910 67 21 5.2 7.8 0.00 0.00 0.00 51 1025.7
20260906143406 66 9 3.5 7.0 0.00 0.00 0.00 52 1026.1
20260906142902 66 19 4.3 5.2 0.00 0.00 0.00 53 1025.8
20260906142401 65 12 4.3 6.1 0.00 0.00 0.00 53 1025.8
20260906141856 65 10 5.2 7.0 0.00 0.00 0.00 53 1025.6
20260906141356 64 12 5.2 7.8 0.00 0.00 0.00 54 1025.7
20260906140856 64 6 5.2 9.6 0.00 0.00 0.00 55 1025.4
20260906140351 63 12 4.3 8.7 0.00 0.00 0.00 56 1025.7
20260906135849 63 5 5.2 6.1 0.00 0.00 0.00 57 1025.7
20260906135348 63 20 5.2 6.1 0.00 0.00 0.00 57 1025.6
20260906134844 62 9 3.5 6.1 0.00 0.00 0.00 57 1025.4
20260906134339 62 17 5.2 6.1 0.00 0.00 0.00 57 1025.3
20260906133834 62 14 3.5 6.1 0.00 0.00 0.00 58 1025.6
20260906133330 61 20 3.5 5.2 0.00 0.00 0.00 58 1025.4
20260906132825 61 22 2.6 3.5 0.00 0.00 0.00 58 1025.3
20260906132321 61 22 3.5 6.1 0.00 0.00 0.00 59 1025.2
20260906131816 60 339 2.6 4.3 0.00 0.00 0.00 59 1025.3
20260906131311 60 12 3.5 5.2 0.00 0.00 0.00 59 1025.2
20260906130306 60 9 2.6 4.3 0.00 0.00 0.00 58 1024.9
20260906125805 61 23 3.5 4.3 0.00 0.00 0.00 58 1025.3
20260906125306 61 4 3.5 4.3 0.00 0.00 0.00 57 1025.4
20260906124758 61 4 3.5 5.2 0.00 0.00 0.00 56 1025.3
20260906124254 61 11 3.5 4.3 0.00 0.00 0.00 56 1025.2
20260906123753 62 5 3.5 4.3 0.00 0.00 0.00 55 1025.2
20260906123248 62 2 3.5 5.2 0.00 0.00 0.00 54 1024.9
20260906122747 63 6 3.5 5.2 0.00 0.00 0.00 54 1025.1
20260906122243 63 9 3.5 5.2 0.00 0.00 0.00 53 1024.9
20260906121739 63 14 4.3 6.1 0.00 0.00 0.00 52 1025.1
20260906121235 63 15 4.3 6.1 0.00 0.00 0.00 52 1024.8
20260906120731 63 9 5.2 6.1 0.00 0.00 0.00 52 1024.9
20260906120228 63 1 5.2 7.0 0.00 0.00 0.00 52 1024.9
20260906115723 63 11 3.5 7.8 0.00 0.00 0.00 52 1024.9
20260906115218 63 21 4.3 6.1 0.00 0.00 0.00 52 1024.9
20260906114717 63 13 4.3 7.0 0.00 0.00 0.00 53 1024.9
20260906114212 63 16 4.3 7.0 0.00 0.00 0.00 53 1024.9
20260906113708 63 16 5.2 7.0 0.00 0.00 0.00 52 1024.9
20260906113207 63 17 4.3 8.7 0.00 0.00 0.00 52 1024.8
20260906112706 62 26 4.3 7.8 0.00 0.00 0.00 53 1024.7
20260906112204 63 11 4.3 5.2 0.00 0.00 0.00 53 1024.7
20260906111703 63 11 3.5 7.0 0.00 0.00 0.00 53 1024.8
20260906111157 63 22 5.2 5.2 0.00 0.00 0.00 54 1024.5
20260906110653 62 20 6.1 6.1 0.00 0.00 0.00 55 1024.6
20260906110148 62 12 3.5 6.1 0.00 0.00 0.00 54 1024.6
20260906105648 63 10 4.3 6.1 0.00 0.00 0.00 54 1024.5
20260906105144 63 12 3.5 6.1 0.00 0.00 0.00 53 1024.6
20260906104643 64 9 2.6 4.3 0.00 0.00 0.00 53 1024.5
20260906104143 64 11 3.5 5.2 0.00 0.00 0.00 52 1024.6
20260906103641 64 22 6.1 7.8 0.00 0.00 0.00 52 1024.8
20260906103136 63 4 5.2 7.0 0.00 0.00 0.00 53 1024.6
20260906102631 64 10 4.3 6.1 0.00 0.00 0.00 54 1024.8
20260906102126 64 7 4.3 7.0 0.00 0.00 0.00 54 1024.7
20260906101625 63 7 6.1 7.0 0.00 0.00 0.00 55 1024.5
20260906101125 63 19 5.2 6.1 0.00 0.00 0.00 55 1024.9
20260906100621 64 7 3.5 5.2 0.00 0.00 0.00 54 1024.8
20260906100116 64 15 4.3 6.1 0.00 0.00 0.00 53 1024.9
20260906095616 64 357 3.5 5.2 0.00 0.00 0.00 52 1025.1
20260906095111 64 10 4.3 6.1 0.00 0.00 0.00 53 1025.2
20260906094610 64 0 3.5 4.3 0.00 0.00 0.00 53 1024.9
20260906094106 64 17 4.3 6.1 0.00 0.00 0.00 53 1025.1
20260906093602 64 23 6.1 7.8 0.00 0.00 0.00 54 1025.2
20260906093057 63 17 5.2 7.8 0.00 0.00 0.00 56 1025.1
20260906092552 63 9 5.2 6.1 0.00 0.00 0.00 57 1025.1
20260906092047 63 9 5.2 6.1 0.00 0.00 0.00 56 1025.1
20260906091543 63 14 4.3 5.2 0.00 0.00 0.00 57 1024.8
20260906091039 64 9 2.6 6.1 0.00 0.00 0.00 58 1024.7
20260906090539 63 9 4.3 6.1 0.00 0.00 0.00 59 1024.7
20260906090040 63 7 4.3 5.2 0.00 0.00 0.00 63 1024.7
20260906085538 64 15 4.3 6.1 0.00 0.00 0.00 62 1024.8
20260906085038 64 14 4.3 6.1 0.00 0.00 0.00 61 1024.7
20260906084533 64 12 4.3 5.2 0.00 0.00 0.00 61 1024.9
20260906084031 64 19 5.2 7.0 0.00 0.00 0.00 62 1024.8
20260906083527 64 12 4.3 6.1 0.00 0.00 0.00 63 1025.1
20260906083027 64 10 5.2 6.1 0.00 0.00 0.00 64 1025.1
20260906082522 64 11 5.2 6.1 0.00 0.00 0.00 64 1024.9
20260906082018 64 15 5.2 6.1 0.00 0.00 0.00 64 1024.9
20260906081514 64 25 5.2 6.1 0.00 0.00 0.00 64 1024.9
20260906081009 64 14 5.2 5.2 0.00 0.00 0.00 64 1025.1
20260906080506 64 10 5.2 6.1 0.00 0.00 0.00 64 1024.9
20260906080001 64 10 4.3 6.1 0.00 0.00 0.00 63 1024.8
20260906075455 65 11 4.3 5.2 0.00 0.00 0.00 62 1025.1
20260906074951 65 16 4.3 7.0 0.00 0.00 0.00 61 1025.1
20260906074451 65 8 4.3 5.2 0.00 0.00 0.00 62 1025.1
20260906073949 65 18 5.2 5.2 0.00 0.00 0.00 63 1025.2
20260906073444 64 6 4.3 5.2 0.00 0.00 0.00 66 1025.1
20260906072940 64 5 4.3 5.2 0.00 0.00 0.00 68 1025.4
20260906072435 64 6 3.5 5.2 0.00 0.00 0.00 69 1025.2
20260906071931 64 12 4.3 4.3 0.00 0.00 0.00 70 1025.1
20260906071427 64 5 3.5 3.5 0.00 0.00 0.00 69 1025.4
20260906070923 64 17 3.5 4.3 0.00 0.00 0.00 69 1025.3
20260906070419 65 8 3.5 4.3 0.00 0.00 0.00 68 1025.3
20260906065915 65 5 3.5 4.3 0.00 0.00 0.00 67 1025.6
20260906065408 65 16 4.3 5.2 0.00 0.00 0.00 66 1025.3
20260906064904 65 359 3.5 6.1 0.00 0.00 0.00 67 1025.3
20260906064401 63 8 4.3 5.2 0.00 0.00 0.00 71 1025.4
20260906063900 63 3 4.3 4.3 0.00 0.00 0.00 72 1025.2
20260906063355 63 23 3.5 3.5 0.00 0.00 0.00 72 1025.7
20260906062850 63 10 3.5 4.3 0.00 0.00 0.00 72 1025.4
20260906062350 63 11 3.5 3.5 0.00 0.00 0.00 71 1025.4
20260906061845 64 9 4.3 4.3 0.00 0.00 0.00 70 1025.3
20260906061342 64 24 2.6 3.5 0.00 0.00 0.00 69 1025.4
20260906060836 64 12 4.3 5.2 0.00 0.00 0.00 69 1025.1
20260906060334 64 17 4.3 5.2 0.00 0.00 0.00 70 1025.3
20260906055829 64 9 5.2 7.8 0.00 0.00 0.00 71 1025.1
20260906055325 63 7 4.3 5.2 0.00 0.00 0.00 72 1025.1
20260906054820 63 358 4.3 5.2 0.00 0.00 0.00 72 1024.7
20260906054315 63 4 3.5 4.3 0.00 0.00 0.00 72 1024.9
20260906053812 63 18 3.5 4.3 0.00 0.00 0.00 72 1024.9
20260906053307 63 14 3.5 3.5 0.00 0.00 0.00 72 1024.8
20260906052802 63 13 3.5 4.3 0.00 0.00 0.00 71 1024.9
20260906052258 63 9 3.5 4.3 0.00 0.00 0.00 71 1025.1
20260906051755 64 9 4.3 4.3 0.00 0.00 0.00 71 1024.8
20260906051254 64 14 3.5 4.3 0.00 0.00 0.00 70 1024.8
20260906050750 64 13 4.3 4.3 0.00 0.00 0.00 70 1025.1
20260906050245 65 2 2.6 3.5 0.00 0.00 0.00 69 1024.9
20260906045744 65 9 2.6 3.5 0.00 0.00 0.00 69 1025.1
20260906045239 65 16 3.5 4.3 0.00 0.00 0.00 69 1025.3
20260906044734 65 1 2.6 3.5 0.00 0.00 0.00 69 1025.2
20260906044229 65 9 2.6 3.5 0.00 0.00 0.00 69 1025.1
20260906043726 65 12 3.5 4.3 0.00 0.00 0.00 68 1025.2
20260906043221 65 14 2.6 3.5 0.00 0.00 0.00 68 1025.3
20260906042721 66 15 2.6 3.5 0.00 0.00 0.00 68 1025.2
20260906042220 66 15 2.6 2.6 0.00 0.00 0.00 68 1025.2
20260906041715 66 0 2.6 2.6 0.00 0.00 0.00 68 1025.3
20260906041211 66 8 2.6 2.6 0.00 0.00 0.00 67 1025.1
20260906040706 66 19 2.6 3.5 0.00 0.00 0.00 67 1025.2
20260906040201 66 5 1.7 3.5 0.00 0.00 0.00 67 1025.4
20260906035657 67 14 2.6 2.6 0.00 0.00 0.00 66 1025.3
20260906035153 67 30 1.7 2.6 0.00 0.00 0.00 65 1025.2
20260906034653 67 54 1.7 1.7 0.00 0.00 0.00 65 1025.3
20260906034148 67 22 1.7 1.7 0.00 0.00 0.00 64 1025.3
20260906033643 68 46 1.7 1.7 0.00 0.00 0.00 62 1025.6
20260906033137 68 162 0.0 0.9 0.00 0.00 0.00 60 1025.4
20260906032634 69 59 0.0 0.9 0.00 0.00 0.00 62 1025.6
20260906032134 69 55 0.0 0.9 0.00 0.00 0.00 62 1025.6
20260906031629 69 167 0.0 1.7 0.00 0.00 0.00 61 1025.4
20260906031125 70 126 0.0 2.6 0.00 0.00 0.00 61 1025.4
20260906030624 70 196 1.7 1.7 0.00 0.00 0.00 60 1025.3
20260906030119 70 148 1.7 3.5 0.00 0.00 0.00 60 1024.9
20260906025619 70 241 1.7 1.7 0.00 0.00 0.00 59 1024.9
20260906025118 70 186 2.6 4.3 0.00 0.00 0.00 59 1025.1
20260906024612 70 137 1.7 4.3 0.00 0.00 0.00 56 1024.8
20260906024107 70 174 0.0 3.5 0.00 0.00 0.00 53 1024.7
20260906023603 71 211 1.7 3.5 0.00 0.00 0.00 48 1024.7
20260906023057 70 186 3.5 8.7 0.00 0.00 0.00 47 1024.6
20260906022553 69 172 1.7 2.6 0.00 0.00 0.00 41 1024.6
20260906022048 69 137 0.0 0.9 0.00 0.00 0.00 41 1024.3
20260906021544 70 130 0.9 0.9 0.00 0.00 0.00 41 1024.2
20260906021043 70 70 0.9 3.5 0.00 0.00 0.00 40 1023.8
20260906020542 70 62 0.0 1.7 0.00 0.00 0.00 40 1024.0
20260906020042 70 202 0.0 0.9 0.00 0.00 0.00 39 1023.8
20260906015541 71 70 1.7 1.7 0.00 0.00 0.00 39 1023.8
20260906015041 71 58 0.9 2.6 0.00 0.00 0.00 39 1023.8
20260906014536 72 26 1.7 2.6 0.00 0.00 0.00 38 1023.7
20260906014032 73 23 1.7 3.5 0.00 0.00 0.00 37 1023.7
20260906013527 73 9 3.5 3.5 0.00 0.00 0.00 37 1023.5
20260906013023 74 7 3.5 4.3 0.00 0.00 0.00 37 1023.6
20260906012518 75 8 4.3 5.2 0.00 0.00 0.00 37 1023.3
20260906012017 76 9 3.5 5.2 0.00 0.00 0.00 36 1023.6
20260906011514 77 16 2.6 3.5 0.00 0.00 0.00 35 1023.6
20260906011013 78 12 1.7 2.6 0.00 0.00 0.00 33 1023.6
20260906010509 79 13 1.7 2.6 0.00 0.00 0.00 32 1023.8
20260906010005 80 352 0.0 0.9 0.00 0.00 0.00 30 1024.0
20260906005504 80 43 1.7 1.7 0.00 0.00 0.00 31 1023.8
20260906005003 80 50 0.0 0.9 0.00 0.00 0.00 30 1024.0
20260906004503 80 67 0.9 2.6 0.00 0.00 0.00 31 1024.1
20260906003958 79 4 1.7 2.6 0.00 0.00 0.00 31 1024.2
20260906003453 79 2 1.7 5.2 0.00 0.00 0.00 32 1024.3
20260906002948 78 28 2.6 5.2 0.00 0.00 0.00 32 1024.2
20260906002448 78 356 2.6 5.2 0.00 0.00 0.00 32 1024.1
20260906001943 77 12 5.2 6.1 0.00 0.00 0.00 33 1024.1
20260906001440 77 315 6.1 7.0 0.00 0.00 0.00 33 1024.3
20260906000934 78 0 4.3 4.3 0.00 0.00 0.00 34 1024.2
20260906000430 78 6 1.7 3.5 0.00 0.00 0.00 34 1024.3
20260905235924 78 357 0.9 3.5 0.00 0.00 0.00 34 1024.1
20260905235424 79 289 0.0 1.7 0.00 0.00 0.00 33 1024.0
20260905234919 79 327 0.9 1.7 0.00 0.00 0.00 33 1024.1
20260905234415 79 290 3.5 3.5 0.00 0.00 0.00 32 1023.8
20260905233915 79 316 0.0 2.6 0.00 0.00 0.00 31 1024.0
20260905233410 78 285 1.7 2.6 0.00 0.00 0.00 32 1023.8
20260905232909 78 323 0.9 2.6 0.00 0.00 0.00 32 1024.1
20260905232405 78 290 0.9 2.6 0.00 0.00 0.00 33 1024.0
20260905231901 79 288 1.7 3.5 0.00 0.00 0.00 32 1024.1
20260905231356 81 301 2.6 3.5 0.00 0.00 0.00 30 1023.8
20260905230853 80 174 0.9 1.7 0.00 0.00 0.00 30 1023.7
20260905230350 79 21 0.0 0.0 0.00 0.00 0.00 30 1023.7
20260905225849 79 7 0.9 1.7 0.00 0.00 0.00 31 1023.8
20260905225344 79 318 0.9 2.6 0.00 0.00 0.00 30 1023.7
20260905224839 79 42 1.7 3.5 0.00 0.00 0.00 31 1023.7
20260905224335 79 15 1.7 3.5 0.00 0.00 0.00 31 1023.7
20260905223830 79 337 2.6 3.5 0.00 0.00 0.00 32 1024.1
20260905223328 78 329 2.6 4.3 0.00 0.00 0.00 32 1024.1
20260905222822 78 2 2.6 4.3 0.00 0.00 0.00 33 1024.1
20260905222321 78 2 5.2 5.2 0.02 0.00 0.00 35 1024.2
20260905221817 78 9 2.6 2.6 0.02 0.00 0.00 35 1024.2
20260905221314 78 35 0.0 1.7 0.00 0.00 0.00 33 1024.5
20260905220809 78 307 1.7 3.5 0.00 0.00 0.00 31 1024.5